Regional Weather Roundup
Issued by NWS Little Rock, AR

Home | Current Version | Previous Version | Text Only | Print | Product List | Glossary On
Versions: 1 2 3 4 5 6 7 8 9 10 11 12 13 14 15 16 17 18 19 20 21 22 23 24 25 26 27 28 29 30 31 32 33 34 35 36 37 38 39 40 41 42 43 44 45 46 47 48 49 50
000
ASUS44 KLZK 061805
RWRLZK

WEATHER ROUNDUP FOR ARKANSAS
NATIONAL WEATHER SERVICE LITTLE ROCK AR
100 PM CDT FRI MAY 06 2016

NOTE: "FAIR" INDICATES FEW OR NO CLOUDS BELOW 12,000 FEET WITH NO
SIGNIFICANT WEATHER AND/OR OBSTRUCTIONS TO VISIBILITY.

ARZ001-003-010-029-061900-
NORTHWEST ARKANSAS

CITY           SKY/WX    TMP DP  RH WIND       PRES   REMARKS
FAYETTEVILLE   SUNNY     71  47  42 VRB3      30.13F
6HR MIN TEMP:  41; 6HR MAX TEMP:  72;

FORT SMITH     SUNNY     75  41  29 CALM      30.12F
6HR MIN TEMP:  51; 6HR MAX TEMP:  75;

HARRISON       SUNNY     72  40  31 N6        30.13F
6HR MIN TEMP:  45; 6HR MAX TEMP:  73;

BENTONVILLE    SUNNY     72  39  30 NE5       30.15F
6HR MIN TEMP:  46; 6HR MAX TEMP:  73;

ROGERS         SUNNY     72  43  35 SE3       30.14F
6HR MIN TEMP:  48; 6HR MAX TEMP:  72;

SILOAM SPGS    SUNNY     73  43  33 CALM      30.14F
6HR MIN TEMP:  46; 6HR MAX TEMP:  73;

HIGHFILL       SUNNY     73  43  33 VRB5      30.13F
6HR MIN TEMP:  45; 6HR MAX TEMP:  74;

SPRINGDALE     SUNNY     72  43  35 W5        30.15F
$$

ARZ004-005-016-061900-
NORTH CENTRAL ARKANSAS

CITY           SKY/WX    TMP DP  RH WIND       PRES   REMARKS
BATESVILLE     SUNNY     72  43  35 W7        30.12S
6HR MIN TEMP:  46; 6HR MAX TEMP:  72;

FLIPPIN        SUNNY    N/A N/A N/A CALM      30.09F
MTN HOME       SUNNY     70  41  34 CALM      30.11F
6HR MIN TEMP:  45; 6HR MAX TEMP:  70;

$$

ARZ040-041-061900-
WEST CENTRAL ARKANSAS

CITY           SKY/WX    TMP DP  RH WIND       PRES   REMARKS
MENA           SUNNY     75  41  29 CALM      30.13F
MOUNT IDA      SUNNY     73  45  36 CALM      30.11F
6HR MIN TEMP:  45; 6HR MAX TEMP:  74;

$$

ARZ009-017-025-026-028-061900-
NORTHEAST ARKANSAS

CITY           SKY/WX    TMP DP  RH WIND       PRES   REMARKS
CORNING          N/A     72  45  37 W6        30.09F
JONESBORO      SUNNY     70  43  37 VRB7      30.09F
6HR MIN TEMP:  52; 6HR MAX TEMP:  71;

NEWPORT        SUNNY     72  43  35 N7        30.12F
6HR MIN TEMP:  51; 6HR MAX TEMP:  73;

WALNUT RIDGE   SUNNY     72  43  35 W8        30.10F
6HR MIN TEMP:  48; 6HR MAX TEMP:  72;

BLYTHEVILLE    SUNNY     73  46  38 NW8       30.09F
6HR MIN TEMP:  52; 6HR MAX TEMP:  73;

$$

ARZ022-023-033-042-044-061900-
CENTRAL ARKANSAS

CITY           SKY/WX    TMP DP  RH WIND       PRES   REMARKS
LITTLE ROCK    SUNNY     74  45  35 S7        30.12F
6HR MIN TEMP:  53; 6HR MAX TEMP:  74;

N LITTLE ROCK    N/A     71  48  43 CALM      30.11F
6HR MIN TEMP:  51; 6HR MAX TEMP:  71;

JACKSONVILLE   MOSUNNY   72  46  39 VRB6      30.11F
6HR MIN TEMP:  48; 6HR MAX TEMP:  72;

SEARCY         SUNNY     72  44  36 CALM      30.13F
6HR MIN TEMP:  48; 6HR MAX TEMP:  73;

HOT SPRINGS    SUNNY     73  42  32 NW7       30.13F
6HR MIN TEMP:  50; 6HR MAX TEMP:  73;

RUSSELLVILLE   SUNNY     71  46  40 W3        30.12F
6HR MIN TEMP:  47; 6HR MAX TEMP:  71;

CLINTON        FAIR      73  46  38 CALM      30.12F
$$

ARZ036-061900-
EAST ARKANSAS

CITY           SKY/WX    TMP DP  RH WIND       PRES   REMARKS
WEST MEMPHIS   SUNNY     69  47  45 NW8       30.09F
6HR MIN TEMP:  49; 6HR MAX TEMP:  70;

$$

ARZ050-053-066-070-073-061900-
SOUTHWEST ARKANSAS

CITY           SKY/WX    TMP DP  RH WIND       PRES   REMARKS
ARKADELPHIA    FAIR      73  49  42 SE3       30.13F
6HR MIN TEMP:  53; 6HR MAX TEMP:  73;

CAMDEN         SUNNY     73  43  33 SW5       30.13F
TEXARKANA      SUNNY     75  43  31 NE5       30.12F
6HR MIN TEMP:  53; 6HR MAX TEMP:  75;

EL DORADO      SUNNY     74  44  34 VRB6      30.12F
6HR MIN TEMP:  52; 6HR MAX TEMP:  74;

DE QUEEN       SUNNY     74  52  46 VRB3      30.11F
6HR MIN TEMP:  49; 6HR MAX TEMP:  74;

$$

ARZ056-057-069-061900-
SOUTHEAST ARKANSAS

CITY           SKY/WX    TMP DP  RH WIND       PRES   REMARKS
PINE BLUFF     SUNNY     72  44  36 NE8       30.12F
6HR MIN TEMP:  50; 6HR MAX TEMP:  72;

STUTTGART      SUNNY     70  45  40 NW6       30.13F
6HR MIN TEMP:  52; 6HR MAX TEMP:  72;

MONTICELLO     SUNNY     73  42  32 VRB3      30.12F
6HR MIN TEMP:  50; 6HR MAX TEMP:  73;


$$





USA.gov is the U.S. government's official web portal to all federal, state and local government web resources and services.